Location: *
(34.0486°S, 61.7880°E)
Time: 19:59:51
(UTC+00:00)

FALCON 9 R/B - Pass Details

Date: 01 April 2020
Orbit: 293 x 10142 km, 34.5° (Epoch: 28 May)

Event Time Altitude Azimuth Distance (km) Brightness Sun altitude
Rises 14:56:37 0° 307° (NW) 6,486 7.5 -15.2°
Reaches altitude 10° 15:02:54 10° 314° (NW) 4,003 6.2 -16.5°
Maximum altitude 15:10:15 32° 13° (NNE) 1,300 3.0 -18.0°
Enters shadow 15:11:24 28° 43° (NE) 1,237 2.7 -18.2°
